Stations météo

réclame
Mon MeteoGroup
Landsberg, Allemagne (10857): Température de l'air & dewpoint: 19.06.2018 15:00:00 - 25.06.2018 15:00:00 (CEST)Landsberg, Allemagne (10857): Vitesse du vent & gusts: 19.06.2018 15:00:00 - 25.06.2018 15:00:00 (CEST)Landsberg, Allemagne (10857): Direction du vent: 19.06.2018 15:00:00 - 25.06.2018 15:00:00 (CEST)Landsberg, Allemagne (10857): reduced air pressure: 19.06.2018 15:00:00 - 25.06.2018 15:00:00 (CEST)Landsberg, Allemagne (10857): visibility: 19.06.2018 15:00:00 - 25.06.2018 15:00:00 (CEST)
Date & Time tt [°C] td [°C] ff [km/h] ff [knt] fx [km/h] fx [knt] dd ppp [hPa] vv [km]
25.06.2018 15:00:00 17,0 7,3 7 4 - - N 1021,6 7
25.06.2018 14:00:00 15,7 7,4 7 4 - - WSW 1022,2 7
25.06.2018 13:00:00 15,5 7,2 7 4 - - NW 1022,0 6
25.06.2018 12:00:00 14,8 7,7 11 6 - - WNW 1022,0 7
25.06.2018 11:00:00 14,3 8,1 11 6 - - W 1021,7 7
25.06.2018 10:00:00 14,5 8,1 11 6 - - NE 1021,3 7
25.06.2018 09:00:00 12,6 9,3 11 6 - - NW 1021,7 7
25.06.2018 08:00:00 11,1 9,8 7 4 - - WNW 1021,7 6
25.06.2018 07:00:00 10,9 9,8 7 4 - - NW 1021,5 2,1
25.06.2018 06:00:00 10,6 9,5 7 4 - - NW 1021,1 5
25.06.2018 05:00:00 10,9 9,5 11 6 - - NNW 1020,8 3,5
25.06.2018 04:00:00 11,4 9,7 7 4 - - NW 1020,5 4,1
25.06.2018 03:00:00 12,3 8,7 11 6 - - NW 1020,2 6
25.06.2018 02:00:00 13,4 8,0 11 6 - - W 1020,0 7
25.06.2018 01:00:00 13,6 8,2 7 4 - - W 1019,8 5
25.06.2018 00:00:00 14,4 7,7 7 4 - - W 1019,6 5
24.06.2018 23:00:00 14,6 7,6 11 6 - - W 1019,5 7
24.06.2018 22:00:00 14,6 7,8 11 6 - - W 1019,5 8
24.06.2018 21:00:00 15,4 7,9 11 6 - - NW 1019,0 8
24.06.2018 20:00:00 16,2 7,5 14 8 - - NNW 1018,7 7
24.06.2018 19:00:00 17,0 7,0 14 8 - - NNW 1018,3 7
24.06.2018 18:00:00 17,9 7,2 14 8 - - N 1018,2 7
24.06.2018 17:00:00 18,1 6,8 14 8 - - N 1018,5 6
24.06.2018 16:00:00 18,6 7,7 14 8 - - NNW 1018,4 7
24.06.2018 15:00:00 18,0 6,6 11 6 - - N 1018,7 5
24.06.2018 14:00:00 17,4 6,8 11 6 - - NW 1019,4 5
24.06.2018 13:00:00 17,2 6,5 7 4 - - NW 1019,8 6
24.06.2018 12:00:00 15,8 6,4 11 6 - - NNW 1020,7 7
24.06.2018 11:00:00 15,4 6,8 7 4 - - WNW 1020,8 7
24.06.2018 10:00:00 14,0 6,8 4 2 - - W 1021,2 7
24.06.2018 09:00:00 14,2 6,5 7 4 - - NNE 1021,4 8
24.06.2018 08:00:00 13,2 6,8 7 4 - - NNW 1021,8 9
24.06.2018 07:00:00 11,8 8,1 4 2 - - N 1022,1 8
24.06.2018 06:00:00 11,0 8,2 0 0 - - N 1022,2 6
24.06.2018 05:00:00 10,8 8,0 7 4 - - SE 1022,3 7
24.06.2018 04:00:00 11,0 7,8 4 2 - - E 1022,9 6
24.06.2018 03:00:00 11,0 8,3 7 4 - - ENE 1023,3 7
24.06.2018 02:00:00 11,3 8,1 7 4 - - ENE 1023,6 7
24.06.2018 01:00:00 12,3 7,2 11 6 - - N 1023,5 7
24.06.2018 00:00:00 12,8 6,6 7 4 - - NNE 1023,4 8
23.06.2018 23:00:00 13,4 6,8 7 4 - - NNW 1023,3 8
23.06.2018 22:00:00 14,4 6,1 7 4 - - NW 1022,9 8
23.06.2018 21:00:00 14,8 6,0 7 4 - - NW 1022,5 8
23.06.2018 20:00:00 15,8 5,2 14 8 - - NW 1022,3 8
23.06.2018 19:00:00 17,1 4,9 18 10 - - NW 1021,9 7
23.06.2018 18:00:00 16,8 4,4 14 8 - - WNW 1022,1 6
23.06.2018 17:00:00 16,8 4,4 18 10 - - WNW 1022,2 6
23.06.2018 16:00:00 16,1 4,2 11 6 - - W 1022,6 7
23.06.2018 15:00:00 16,0 3,5 11 6 - - WNW 1022,9 6
23.06.2018 14:00:00 15,0 4,1 18 10 - - WNW 1023,8 6
23.06.2018 13:00:00 15,1 3,8 14 8 - - WNW 1024,0 6
23.06.2018 12:00:00 14,3 4,1 14 8 - - WSW 1024,4 7
23.06.2018 11:00:00 13,0 3,3 11 6 - - W 1025,0 8
23.06.2018 10:00:00 12,4 5,2 11 6 - - WSW 1025,3 8
23.06.2018 09:00:00 12,0 5,0 7 4 - - NW 1025,7 7
23.06.2018 08:00:00 10,5 4,7 7 4 - - W 1026,0 9
23.06.2018 07:00:00 8,5 5,4 4 2 - - SW 1026,5 9
23.06.2018 06:00:00 6,8 5,0 4 2 - - S 1026,8 7
23.06.2018 05:00:00 7,6 5,0 4 2 - - SW 1026,4 7
23.06.2018 04:00:00 7,4 5,0 4 2 - - S 1026,7 7
23.06.2018 03:00:00 8,8 4,7 4 2 - - SSW 1026,5 8
23.06.2018 02:00:00 9,0 4,6 4 2 - - N 1026,8 8
23.06.2018 01:00:00 9,2 4,6 7 4 - - SW 1027,0 8
23.06.2018 00:00:00 8,6 4,3 7 4 - - S 1027,1 9
22.06.2018 23:00:00 11,0 4,0 7 4 - - SW 1026,3 9
22.06.2018 22:00:00 11,0 3,8 7 4 - - W 1026,0 9
22.06.2018 21:00:00 12,1 3,7 14 8 - - NW 1025,0 8
22.06.2018 20:00:00 13,7 3,0 22 12 - - NW 1024,4 7
22.06.2018 19:00:00 14,6 2,3 22 12 - - WNW 1024,0 7
22.06.2018 18:00:00 14,9 2,1 25 14 - - NW 1023,7 6
22.06.2018 17:00:00 14,2 2,1 29 16 - - NW 1023,7 7
22.06.2018 16:00:00 14,2 3,5 25 14 - - WNW 1023,4 8
22.06.2018 15:00:00 14,8 2,6 29 16 47 25 W 1022,8 7
22.06.2018 14:00:00 14,8 3,2 29 16 - - W 1022,7 7
22.06.2018 13:00:00 14,1 2,0 29 16 50 27 W 1023,1 7
22.06.2018 12:00:00 14,4 3,1 29 16 - - W 1022,9 7
22.06.2018 11:00:00 13,2 3,4 25 14 - - WSW 1023,0 7
22.06.2018 10:00:00 11,8 3,9 18 10 - - W 1023,3 8
22.06.2018 09:00:00 10,8 3,4 11 6 - - WNW 1023,4 8
22.06.2018 08:00:00 9,9 3,2 11 6 - - WNW 1024,0 8
22.06.2018 07:00:00 9,3 2,9 11 6 - - W 1024,1 9
22.06.2018 06:00:00 8,3 2,5 7 4 - - W 1024,2 9
22.06.2018 05:00:00 9,1 2,5 11 6 - - WNW 1023,8 8
22.06.2018 04:00:00 9,6 2,6 14 8 - - NW 1023,3 8
22.06.2018 03:00:00 11,2 2,0 22 12 - - NW 1022,6 9
22.06.2018 02:00:00 13,0 2,0 22 12 - - NW 1021,8 9
22.06.2018 01:00:00 14,3 2,8 22 12 - - NW 1020,5 8
22.06.2018 00:00:00 15,4 4,0 25 14 - - NNW 1019,2 8
21.06.2018 23:00:00 17,1 11,0 14 8 - - NNW 1017,6 7
21.06.2018 22:00:00 18,3 11,3 18 10 - - WNW 1016,9 7
21.06.2018 21:00:00 19,7 12,4 22 12 - - NW 1015,6 7
21.06.2018 20:00:00 21,1 11,3 25 14 - - WNW 1014,3 7
21.06.2018 19:00:00 22,4 11,6 18 10 - - WNW 1013,7 7
21.06.2018 18:00:00 22,6 11,4 25 14 - - WNW 1013,6 7
21.06.2018 17:00:00 22,9 15,7 18 10 - - W 1013,2 5
21.06.2018 16:00:00 23,9 15,5 18 10 72 39 SW 1012,8 6
21.06.2018 15:00:00 24,8 13,3 25 14 61 33 W 1013,1 7
21.06.2018 14:00:00 21,6 15,5 7 4 - - WNW 1013,7 7
21.06.2018 13:00:00 26,3 14,2 25 14 - - WSW 1012,5 6
21.06.2018 12:00:00 25,4 15,2 22 12 - - WSW 1013,3 7
21.06.2018 11:00:00 25,0 15,5 22 12 - - W 1013,6 7
21.06.2018 10:00:00 24,0 15,3 18 10 - - SW 1013,9 7
21.06.2018 09:00:00 22,7 14,7 18 10 - - SW 1014,8 7
21.06.2018 08:00:00 20,1 14,1 11 6 - - SSW 1015,5 8
21.06.2018 07:00:00 17,3 13,9 11 6 - - S 1016,3 8
21.06.2018 06:00:00 15,0 12,6 7 4 - - SSE 1016,9 7
21.06.2018 05:00:00 15,0 12,4 11 6 - - S 1017,0 6
21.06.2018 04:00:00 15,7 12,5 7 4 - - N 1017,3 7
21.06.2018 03:00:00 15,8 12,6 7 4 - - N 1017,8 6
21.06.2018 02:00:00 16,6 13,1 7 4 - - SSE 1017,9 7
21.06.2018 01:00:00 17,3 13,3 4 2 - - SE 1018,2 7
21.06.2018 00:00:00 18,0 14,0 7 4 - - SSE 1018,5 8
20.06.2018 23:00:00 19,3 14,3 4 2 - - ESE 1018,3 9
20.06.2018 22:00:00 21,2 13,3 4 2 - - ENE 1017,7 8
20.06.2018 21:00:00 23,1 13,5 11 6 - - NE 1017,1 7
20.06.2018 20:00:00 25,2 12,9 11 6 - - N 1016,7 6
20.06.2018 19:00:00 25,5 12,7 11 6 - - NE 1016,7 6
20.06.2018 18:00:00 25,8 13,1 14 8 - - N 1017,0 6
20.06.2018 17:00:00 25,8 13,1 18 10 - - NNE 1017,5 6
20.06.2018 16:00:00 25,7 13,2 14 8 - - NNE 1017,7 5
20.06.2018 15:00:00 25,9 13,1 14 8 - - N 1018,0 6
20.06.2018 14:00:00 25,5 12,8 14 8 - - NE 1018,5 6
20.06.2018 13:00:00 24,8 12,6 14 8 - - E 1019,3 6
20.06.2018 12:00:00 23,8 13,0 14 8 - - ENE 1019,7 8
20.06.2018 11:00:00 23,0 12,6 14 8 - - ENE 1020,1 8
20.06.2018 10:00:00 21,7 13,1 14 8 - - E 1020,6 7
20.06.2018 09:00:00 20,9 13,7 14 8 - - ENE 1021,0 8
20.06.2018 08:00:00 19,1 13,5 4 2 - - E 1021,7 8
20.06.2018 07:00:00 16,0 12,9 4 2 - - N 1022,5 7
20.06.2018 06:00:00 13,5 11,6 4 2 - - SE 1023,2 8
20.06.2018 05:00:00 13,2 11,2 4 2 - - SE 1023,4 7
20.06.2018 04:00:00 13,6 11,7 4 2 - - SSE 1023,5 7
20.06.2018 03:00:00 14,3 12,1 4 2 - - ESE 1023,5 7
20.06.2018 02:00:00 15,0 12,2 4 2 - - SE 1023,7 7
20.06.2018 01:00:00 16,1 12,4 4 2 - - S 1023,7 9
20.06.2018 00:00:00 16,0 12,7 7 4 - - SSE 1023,8 8
19.06.2018 23:00:00 17,7 13,4 4 2 - - E 1023,3 10
19.06.2018 22:00:00 18,5 12,6 4 2 - - E 1023,1 9
19.06.2018 21:00:00 21,1 12,9 7 4 - - NE 1022,2 8
19.06.2018 20:00:00 23,3 13,2 7 4 - - NNE 1021,6 7
19.06.2018 19:00:00 22,9 11,8 11 6 - - NNE 1022,0 7
19.06.2018 18:00:00 23,0 12,4 11 6 - - NNW 1022,0 6
19.06.2018 17:00:00 23,1 12,5 4 2 - - WNW 1022,0 6
19.06.2018 16:00:00 23,0 12,3 4 2 - - E 1022,5 6
19.06.2018 15:00:00 22,5 12,2 11 6 - - WSW 1022,9 5

tt = Température de l'air
td = dewpoint
ff = Vitesse du vent
fx = gusts
dd = Direction du vent
ppp = reduced air pressure
vv = visibility

stations d'obs. à proximité